EWG4ZQ EDDB-EDDS

Flight info

Callsign EWG4ZQ
Flight time 1h 8m
Altitude 25000
Route KISUC1Q/06R KISUC Z117 ODLUN/N0423F260 DCT GALMA Z94 VAGAB/N0410F240 Z94 GORKO T726 TOSTU/N0406F230 T726 LBU
Aircraft A320/M-SDE3FGHIRWY/LB1

Departure

Time 2026-04-30 17:41
Airport Berlin Brandenburg Airport (EDDB)

Arrival

Time 2026-04-30 18:49
Airport Stuttgart Airport (EDDS)
Time Latitude Longitude Altitude Speed Heading
2026-04-30 17:39 52.29579 13.52672 3777 ft 248 kts 222°
2026-04-30 17:41 52.26307 13.29184 9990 ft 304 kts 273°
2026-04-30 17:42 52.25933 13.22170 11469 ft 319 kts 255°
2026-04-30 17:42 52.22431 13.11672 12405 ft 381 kts 239°
2026-04-30 17:43 52.19607 13.04179 13719 ft 393 kts 239°
2026-04-30 17:44 52.15909 12.92161 15555 ft 404 kts 258°
2026-04-30 17:44 52.14556 12.82401 16765 ft 414 kts 259°
2026-04-30 17:46 52.11223 12.59036 19500 ft 434 kts 259°
2026-04-30 17:47 52.08421 12.39657 21509 ft 446 kts 259°
2026-04-30 17:48 52.05521 12.19854 23458 ft 456 kts 254°
2026-04-30 17:48 51.99356 12.08285 24640 ft 467 kts 208°
2026-04-30 17:49 51.87872 11.98020 26077 ft 476 kts 207°
2026-04-30 17:50 51.76169 11.87613 27454 ft 486 kts 207°
2026-04-30 17:51 51.67231 11.79665 28441 ft 492 kts 207°
2026-04-30 17:52 51.58158 11.71665 29373 ft 499 kts 207°
2026-04-30 17:53 51.42842 11.58239 31061 ft 501 kts 207°
2026-04-30 17:54 51.30728 11.47674 31433 ft 491 kts 207°
2026-04-30 17:56 51.06723 11.26962 31431 ft 491 kts 207°
2026-04-30 17:58 50.89439 11.09480 31421 ft 492 kts 211°
2026-04-30 18:00 50.66275 10.86436 31406 ft 492 kts 211°
2026-04-30 18:01 50.51761 10.72078 31372 ft 492 kts 210°
2026-04-30 18:02 50.43083 10.63572 30850 ft 489 kts 210°
2026-04-30 18:02 50.34399 10.55090 28314 ft 494 kts 210°
2026-04-30 18:03 50.25737 10.46671 26066 ft 481 kts 208°
2026-04-30 18:04 50.17101 10.39573 25690 ft 473 kts 208°
2026-04-30 18:05 50.05714 10.29395 25298 ft 472 kts 207°
2026-04-30 18:06 49.95267 10.20550 24946 ft 470 kts 206°
2026-04-30 18:07 49.89327 10.15521 24680 ft 467 kts 207°
2026-04-30 18:08 49.80790 10.08308 24355 ft 464 kts 207°
2026-04-30 18:09 49.69416 9.98724 24362 ft 465 kts 207°
2026-04-30 18:10 49.58048 9.89206 24358 ft 463 kts 206°
2026-04-30 18:11 49.46761 9.79791 24352 ft 463 kts 206°
2026-04-30 18:11 49.38265 9.72745 24345 ft 462 kts 206°
2026-04-30 18:12 49.29764 9.65726 24338 ft 462 kts 206°
2026-04-30 18:13 49.24087 9.61060 24328 ft 462 kts 206°
2026-04-30 18:13 49.16532 9.54854 24316 ft 462 kts 206°
2026-04-30 18:14 49.09967 9.49489 23991 ft 457 kts 207°
2026-04-30 18:15 49.01669 9.42684 22306 ft 444 kts 207°
2026-04-30 18:15 48.93662 9.36001 20650 ft 430 kts 207°
2026-04-30 18:16 48.88933 9.30609 19620 ft 423 kts 223°
2026-04-30 18:16 48.84752 9.24515 18627 ft 415 kts 223°
2026-04-30 18:17 48.82668 9.21503 18077 ft 411 kts 222°
2026-04-30 18:17 48.80606 9.18530 17567 ft 407 kts 222°
2026-04-30 18:17 48.76913 9.12162 16551 ft 401 kts 238°
2026-04-30 18:18 48.76033 9.09703 16210 ft 400 kts 245°
2026-04-30 18:18 48.75080 9.05761 15680 ft 397 kts 254°
2026-04-30 18:18 48.74319 9.01734 15141 ft 396 kts 254°
2026-04-30 18:18 48.73555 8.97738 14581 ft 395 kts 254°
2026-04-30 18:19 48.72783 8.93740 14006 ft 394 kts 253°
2026-04-30 18:19 48.72015 8.89756 13391 ft 393 kts 253°
2026-04-30 18:19 48.71253 8.85803 12822 ft 390 kts 253°
2026-04-30 18:19 48.70493 8.81872 12239 ft 388 kts 253°
2026-04-30 18:20 48.69733 8.77957 11644 ft 386 kts 253°
2026-04-30 18:20 48.68979 8.74074 11073 ft 383 kts 253°
2026-04-30 18:20 48.68242 8.70279 10901 ft 367 kts 253°
2026-04-30 18:20 48.67535 8.66640 10765 ft 353 kts 252°
2026-04-30 18:21 48.66591 8.63319 10660 ft 337 kts 233°
2026-04-30 18:21 48.64955 8.60952 10549 ft 319 kts 208°
2026-04-30 18:21 48.62963 8.59835 10417 ft 302 kts 184°
2026-04-30 18:21 48.60921 8.59920 10137 ft 291 kts 165°
2026-04-30 18:22 48.59128 8.61281 9492 ft 290 kts 134°
2026-04-30 18:22 48.57955 8.66515 8685 ft 260 kts 79°
2026-04-30 18:22 48.58571 8.69021 8334 ft 249 kts 66°
2026-04-30 18:23 48.59154 8.71406 7990 ft 237 kts 74°
2026-04-30 18:23 48.59626 8.73728 7692 ft 226 kts 74°
2026-04-30 18:23 48.60081 8.75969 7389 ft 220 kts 75°
2026-04-30 18:23 48.60521 8.78171 7011 ft 216 kts 75°
2026-04-30 18:24 48.61349 8.82419 6440 ft 204 kts 76°
2026-04-30 18:24 48.61742 8.84443 6162 ft 198 kts 76°
2026-04-30 18:24 48.62117 8.86378 5922 ft 189 kts 76°
2026-04-30 18:25 48.62480 8.88248 5666 ft 178 kts 76°
2026-04-30 18:25 48.63131 8.91618 5214 ft 159 kts 77°
2026-04-30 18:25 48.63432 8.93177 5002 ft 150 kts 78°
2026-04-30 18:26 48.64039 8.96331 4587 ft 159 kts 77°
2026-04-30 18:26 48.64347 8.97933 4369 ft 158 kts 77°
2026-04-30 18:26 48.64654 8.99530 4149 ft 158 kts 76°
2026-04-30 18:27 48.65269 9.02727 3717 ft 158 kts 76°
2026-04-30 18:27 48.65575 9.04322 3516 ft 157 kts 76°
2026-04-30 18:28 48.66149 9.07312 3115 ft 139 kts 77°
2026-04-30 18:28 48.66415 9.08704 2919 ft 137 kts 77°
2026-04-30 18:28 48.66941 9.11477 2548 ft 139 kts 76°
2026-04-30 18:29 48.67214 9.12875 2375 ft 136 kts 74°
2026-04-30 18:29 48.68006 9.17047 1781 ft 136 kts 76°
2026-04-30 18:30 48.68532 9.19801 1415 ft 135 kts 74°
2026-04-30 18:30 48.69018 9.22381 1409 ft 129 kts 76°
2026-04-30 18:31 48.69276 9.23774 2115 ft 140 kts 77°
2026-04-30 18:31 48.69777 9.26908 3254 ft 169 kts 79°
2026-04-30 18:32 48.70367 9.30669 4066 ft 196 kts 78°
2026-04-30 18:32 48.70696 9.32716 4654 ft 204 kts 79°
2026-04-30 18:32 48.71382 9.36938 5087 ft 205 kts 79°
2026-04-30 18:33 48.71721 9.39010 5099 ft 204 kts 79°
2026-04-30 18:33 48.73285 9.42502 5104 ft 221 kts 30°
2026-04-30 18:33 48.74821 9.42898 5100 ft 232 kts 357°
2026-04-30 18:34 48.76382 9.42119 5102 ft 240 kts 343°
2026-04-30 18:34 48.79445 9.40108 5101 ft 245 kts 324°
2026-04-30 18:34 48.80511 9.38087 5105 ft 249 kts 294°
2026-04-30 18:35 48.80817 9.35534 5096 ft 248 kts 262°
2026-04-30 18:35 48.80426 9.33045 5096 ft 245 kts 250°
2026-04-30 18:35 48.79937 9.30564 5093 ft 245 kts 250°
2026-04-30 18:36 48.78967 9.25593 5094 ft 246 kts 250°
2026-04-30 18:36 48.78481 9.23104 5093 ft 246 kts 250°
2026-04-30 18:36 48.77513 9.18152 5095 ft 243 kts 250°
2026-04-30 18:37 48.77028 9.15679 5094 ft 245 kts 249°
2026-04-30 18:37 48.76539 9.13195 5094 ft 246 kts 250°
2026-04-30 18:37 48.76055 9.10724 5091 ft 244 kts 250°
2026-04-30 18:37 48.75575 9.08273 5092 ft 245 kts 250°
2026-04-30 18:38 48.75090 9.05799 5091 ft 245 kts 250°
2026-04-30 18:38 48.74607 9.03325 5093 ft 244 kts 250°
2026-04-30 18:38 48.74133 9.00852 5092 ft 244 kts 250°
2026-04-30 18:38 48.73661 8.98378 5092 ft 246 kts 250°
2026-04-30 18:39 48.73188 8.95885 5100 ft 246 kts 250°
2026-04-30 18:39 48.72711 8.93388 5095 ft 247 kts 251°
2026-04-30 18:39 48.72232 8.90895 5094 ft 247 kts 251°
2026-04-30 18:39 48.71752 8.88407 5092 ft 247 kts 251°
2026-04-30 18:40 48.71271 8.85910 5087 ft 247 kts 250°
2026-04-30 18:40 48.70789 8.83409 5090 ft 247 kts 250°
2026-04-30 18:40 48.70282 8.80919 5091 ft 246 kts 243°
2026-04-30 18:40 48.69344 8.78833 5090 ft 237 kts 216°
2026-04-30 18:41 48.67970 8.77596 5091 ft 226 kts 191°
2026-04-30 18:41 48.66458 8.77337 5092 ft 215 kts 167°
2026-04-30 18:41 48.65065 8.77965 5093 ft 206 kts 148°
2026-04-30 18:41 48.63767 8.78907 5092 ft 207 kts 146°
2026-04-30 18:42 48.62662 8.80219 5092 ft 201 kts 126°
2026-04-30 18:42 48.61772 8.84030 5091 ft 198 kts 89°
2026-04-30 18:42 48.62052 8.86087 5092 ft 202 kts 76°
2026-04-30 18:45 48.65040 9.01537 3882 ft 140 kts 76°
2026-04-30 18:45 48.65312 9.02950 3695 ft 139 kts 77°
2026-04-30 18:45 48.65579 9.04340 3518 ft 136 kts 77°
2026-04-30 18:46 48.65841 9.05710 3343 ft 135 kts 76°
2026-04-30 18:46 48.66104 9.07081 3154 ft 136 kts 76°
2026-04-30 18:46 48.66368 9.08459 2955 ft 136 kts 77°
2026-04-30 18:46 48.66632 9.09834 2778 ft 137 kts 75°
2026-04-30 18:47 48.66849 9.10939 2584 ft 138 kts 76°
2026-04-30 18:47 48.67119 9.12333 2424 ft 137 kts 76°
2026-04-30 18:47 48.67373 9.13732 2182 ft 139 kts 76°
2026-04-30 18:47 48.67641 9.15119 2032 ft 138 kts 75°
2026-04-30 18:48 48.67906 9.16497 1842 ft 136 kts 76°
2026-04-30 18:48 48.68170 9.17884 1672 ft 137 kts 75°
2026-04-30 18:48 48.68429 9.19254 1486 ft 136 kts 75°
2026-04-30 18:48 48.68692 9.20631 1295 ft 136 kts 75°
2026-04-30 18:49 48.68926 9.21878 1247 ft 105 kts 74°
2026-04-30 18:49 48.69084 9.22707 1223 ft 66 kts 74°
2026-04-30 18:49 48.69199 9.23305 1211 ft 53 kts 71°
2026-04-30 18:49 48.69364 9.23667 1204 ft 9 kts 44°
2026-04-30 18:50 48.69413 9.23734 1206 ft 9 kts 32°
2026-04-30 18:50 48.69469 9.23744 1208 ft 6 kts 348°
2026-04-30 18:50 48.69496 9.23723 1209 ft 4 kts 321°
2026-04-30 18:50 48.69506 9.23704 1210 ft 0 kts 306°
2026-04-30 18:51 48.69518 9.23667 1212 ft 7 kts 289°
2026-04-30 18:51 48.69515 9.23602 1213 ft 7 kts 255°
2026-04-30 18:51 48.69503 9.23535 1215 ft 12 kts 254°
2026-04-30 18:51 48.69458 9.23303 1219 ft 27 kts 254°
2026-04-30 18:52 48.69415 9.23072 1224 ft 10 kts 254°
2026-04-30 18:52 48.69399 9.22987 1226 ft 7 kts 254°
2026-04-30 18:52 48.69386 9.22920 1227 ft 10 kts 254°
2026-04-30 18:52 48.69369 9.22830 1229 ft 8 kts 254°
2026-04-30 18:53 48.69355 9.22757 1231 ft 5 kts 253°
2026-04-30 18:53 48.69347 9.22717 1231 ft 2 kts 253°
2026-04-30 18:53 48.69345 9.22707 1232 ft 0 kts 255°
2026-04-30 18:54 48.69339 9.22670 1232 ft 16 kts 255°
2026-04-30 18:54 48.69296 9.22443 1237 ft 22 kts 254°
2026-04-30 18:55 48.69257 9.22242 1250 ft 18 kts 253°
2026-04-30 18:55 48.69200 9.21938 1258 ft 17 kts 253°
2026-04-30 18:55 48.69170 9.21782 1257 ft 13 kts 254°
2026-04-30 18:56 48.69093 9.21379 1267 ft 29 kts 253°
2026-04-30 18:56 48.69037 9.21082 1269 ft 28 kts 253°
2026-04-30 18:56 48.68984 9.20799 1276 ft 28 kts 253°
2026-04-30 18:57 48.68893 9.20322 1288 ft 19 kts 253°
2026-04-30 18:57 48.68860 9.20153 1292 ft 15 kts 253°
2026-04-30 18:57 48.68837 9.20025 1295 ft 10 kts 245°
2026-04-30 18:58 48.68766 9.19881 1296 ft 7 kts 240°
2026-04-30 18:58 48.68753 9.19819 1297 ft 6 kts 253°
2026-04-30 18:58 48.68745 9.19782 1298 ft 2 kts 253°
2026-04-30 18:59 48.68722 9.19660 1302 ft 7 kts 253°
2026-04-30 19:00 48.68651 9.19286 1312 ft 11 kts 254°
2026-04-30 19:00 48.68648 9.19195 1315 ft 6 kts 287°
2026-04-30 19:00 48.68737 9.19147 1318 ft 10 kts
2026-04-30 19:01 48.68805 9.19318 1314 ft 5 kts 19°
2026-04-30 19:01 48.68826 9.19307 1315 ft 5 kts 340°
2026-04-30 19:02 48.68869 9.19289 1315 ft 0 kts 344°
2026-04-30 19:02 48.68870 9.19288 1315 ft 0 kts 344°